Lær å fly hos oss!

Oslo Flyveklubb har i mange år utdannet flygere til privatflygersetifikat PPL(A). Skolen har godkjenning for å drive utdanning til teoriundervisning til PPL(A), privatflygersertifikat PPL (A) og mørkeflyging.

Gi bort en flytur i gave

På en introduksjonstur vil kandidaten være med på forberedelser til, og gjennomføring av en flytur på en times varighet med en av våre instruktører.

Hvor vi holder til?

Flyplassen ligger i Lillestrøm 10 minutter med tog fra Oslo. Følg storgata fra Lillestrøms sentrum så vill man se plassen på venstre side.
Metar/TAF Gardermoen:

ENGM 072320Z VRB02KT CAVOK M04/M07 Q0993

TAF COR COR ENGM 0718/0818 VRB05KT CAVOK BECMG 0804/0806 4000 SN BKN008 TEMPO 0806/0815 1200 SN BKN003 PROB30 0811/0815 -FZRA BECMG 0815/0817 16010KT 9999 SCT020